Content
SEND FEEDBACK

Daily
Averages
Monthly
Summary
United States of America

COLUMBIA, VIRGINIA


Home > North America > United States > Virginia
Elevation: 293 feet     Latitude: 37 42N     Longitude: 078 18W

WEATHER
 
SELECT A DAY
Number of Records: 82,493;   Date Range: 2/1/11 - 9/30/14
 
SHARE

PRINT THIS DATA

[ ← Previous Day ]
WEATHER ALMANAC - MARCH 21, 2014
[ Next Day → ]
[ °C ]   °F
Weather ElementAverageHighLow
Temperature52.2 °F71.6 °F (2:35 pm)28.4 °F (4:35 am)
Dewpoint19.5 °F30.2 °F (9:35 am)6.8 °F (12:55 am)
Humidity33.5 %80 % (6:15 am)12 % (4:15 pm)
Barometer30.02 in30.09 in (8:35 am)29.96 in (5:15 pm)
Wind Speed5 mph15 mph (5:35 pm)
Wind Gust23 mph (3:55 pm)
Weather ElementAverage
Visibility10 mi
Wind DirectionSSE (152 °)

Weather ElementTotal
Precipitation---
Heating Degree Days15 (Base 65)
Averaged from 71 records on March 21, 2014
WEATHER CONDITIONS BREAKOUT
WIND DIRECTION BREAKOUT
WEATHER BY HOUR - MARCH 21, 2014
[ °C ]   °F
Local TimeTemperatureDewpointHumidityBarometerVisibilityWind DirectionWind SpeedGust SpeedPrecipitationEventsConditions
12:35 AM39.2 °F12.2 °F33 %30.02 in10.0 miCalmClear
12:55 AM39.2 °F6.8 °F26 %30.02 in10.0 miCalmClear
1:15 AM42.8 °F15.8 °F34 %30.02 in10.0 miCalmClear
1:35 AM41.0 °F14.0 °F33 %30.03 in10.0 miCalmClear
1:55 AM35.6 °F14.0 °F41 %30.03 in10.0 miCalmClear
2:15 AM35.6 °F14.0 °F41 %30.03 in10.0 miCalmClear
2:35 AM35.6 °F10.4 °F35 %30.03 in10.0 miCalmClear
2:55 AM33.8 °F14.0 °F44 %30.03 in10.0 miCalmClear
3:15 AM33.8 °F19.4 °F56 %30.03 in10.0 miSW (230°)3.5 mphClear
3:35 AM30.2 °F17.6 °F60 %30.03 in10.0 miSW (230°)4.6 mphClear
3:55 AM30.2 °F10.4 °F44 %30.03 in10.0 miCalmClear
4:15 AM30.2 °F19.4 °F64 %30.03 in10.0 miCalmClear
4:35 AM28.4 °F17.6 °F64 %30.03 in10.0 miCalmClear
4:55 AM30.2 °F21.2 °F69 %30.04 in10.0 miSSW (200°)3.5 mphClear
5:15 AM28.4 °F19.4 °F69 %30.04 in10.0 miCalmClear
5:35 AM28.4 °F19.4 °F69 %30.04 in10.0 miSouth (170°)3.5 mphClear
5:55 AM28.4 °F19.4 °F69 %30.04 in10.0 miCalmClear
6:15 AM30.2 °F24.8 °F80 %30.04 in10.0 miCalmClear
6:35 AM30.2 °F24.8 °F80 %30.05 in10.0 miWSW (240°)4.6 mphClear
6:55 AM30.2 °F23.0 °F75 %30.06 in10.0 miWSW (240°)4.6 mphClear
7:15 AM33.8 °F23.0 °F65 %30.06 in10.0 miSW (230°)4.6 mphClear
7:35 AM35.6 °F21.2 °F56 %30.07 in10.0 miSW (230°)5.8 mphClear
7:55 AM37.4 °F21.2 °F52 %30.08 in10.0 miSW (220°)4.6 mphClear
8:15 AM35.6 °F23.0 °F60 %30.08 in10.0 miSW (230°)4.6 mphClear
8:35 AM41.0 °F24.8 °F53 %30.09 in10.0 miSW (220°)3.5 mphClear
8:55 AM44.6 °F26.6 °F49 %30.09 in10.0 miSSW (200°)3.5 mphClear
9:15 AM48.2 °F28.4 °F46 %30.09 in10.0 miSSE (160°)3.5 mphClear
9:35 AM50.0 °F30.2 °F47 %30.09 in10.0 miCalmClear
9:55 AM53.6 °F30.2 °F41 %30.09 in10.0 miSouth (190°)4.6 mphClear
10:15 AM57.2 °F24.8 °F29 %30.09 in10.0 miSSW (200°)5.8 mphClear
10:35 AM60.8 °F21.2 °F22 %30.08 in10.0 miSSW (210°)9.2 mphClear
10:55 AM60.8 °F19.4 °F20 %30.07 in10.0 miWSW (250°)5.8 mph17.3 mphClear
11:15 AM62.6 °F19.4 °F19 %30.07 in10.0 miSSW (210°)9.2 mphClear
11:35 AM62.6 °F19.4 °F19 %30.07 in10.0 miSW (230°)4.6 mph16.1 mphClear
11:55 AM64.4 °F17.6 °F16 %30.07 in10.0 miSW (220°)5.8 mphClear
12:15 PM64.4 °F17.6 °F16 %30.06 in10.0 miWSW (250°)6.9 mph17.3 mphClear
12:35 PM66.2 °F21.2 °F18 %30.06 in10.0 miSSW (210°)10.4 mph18.4 mphClear
12:55 PM66.2 °F21.2 °F18 %30.05 in10.0 miSW (220°)6.9 mphClear
1:15 PM68.0 °F19.4 °F16 %30.05 in10.0 miWSW (250°)9.2 mphClear
1:35 PM68.0 °F21.2 °F17 %30.03 in10.0 miSSW (200°)8.1 mph19.6 mphClear
1:55 PM69.8 °F19.4 °F15 %30.02 in10.0 miSW (230°)8.1 mphClear
2:15 PM69.8 °F19.4 °F15 %30.02 in10.0 miWSW (250°)8.1 mphClear
2:35 PM71.6 °F21.2 °F15 %30.00 in10.0 miSW (230°)9.2 mphClear
2:55 PM69.8 °F19.4 °F15 %30.00 in10.0 miWSW (250°)10.4 mph21.9 mphClear
3:15 PM71.6 °F19.4 °F14 %29.99 in10.0 miSSW (210°)13.8 mphClear
3:35 PM71.6 °F17.6 °F13 %29.98 in10.0 miSSW (200°)12.7 mph21.9 mphClear
3:55 PM71.6 °F17.6 °F13 %29.98 in10.0 miWSW (240°)8.1 mph23.0 mphClear
4:15 PM71.6 °F15.8 °F12 %29.97 in10.0 miSW (230°)11.5 mph18.4 mphScattered Clouds
4:35 PM71.6 °F15.8 °F12 %29.97 in10.0 miWSW (250°)9.2 mphClear
4:55 PM71.6 °F15.8 °F12 %29.97 in10.0 miSW (220°)10.4 mph17.3 mphClear
5:15 PM71.6 °F17.6 °F13 %29.96 in10.0 miSW (230°)12.7 mph21.9 mphClear
5:35 PM71.6 °F19.4 °F14 %29.97 in10.0 miSSW (210°)15.0 mph20.7 mphClear
5:55 PM71.6 °F17.6 °F13 %29.97 in10.0 miSSW (210°)13.8 mph17.3 mphClear
6:15 PM69.8 °F17.6 °F14 %29.97 in10.0 miSSW (210°)10.4 mphClear
6:35 PM69.8 °F15.8 °F13 %29.97 in10.0 miSW (220°)8.1 mphClear
6:55 PM66.2 °F17.6 °F15 %10.0 miSSW (200°)8.1 mphClear
7:15 PM64.4 °F19.4 °F18 %29.98 in10.0 miSSW (200°)6.9 mphClear
7:35 PM60.8 °F19.4 °F20 %29.98 in10.0 miSouth (190°)5.8 mphClear
7:55 PM59.0 °F19.4 °F22 %29.98 in10.0 miSouth (190°)4.6 mphClear
8:15 PM57.2 °F19.4 °F23 %29.98 in10.0 miSouth (180°)3.5 mphClear
8:35 PM57.2 °F19.4 °F23 %29.98 in10.0 miCalmClear
8:55 PM55.4 °F19.4 °F25 %29.99 in10.0 miCalmClear
9:15 PM55.4 °F21.2 °F26 %29.99 in10.0 miSouth (180°)3.5 mphClear
9:35 PM55.4 °F19.4 °F25 %29.99 in10.0 miCalmClear
9:55 PM55.4 °F19.4 °F25 %29.99 in10.0 miCalmClear
10:15 PM53.6 °F21.2 °F28 %29.99 in10.0 miCalmClear
10:35 PM50.0 °F21.2 °F32 %29.99 in10.0 miCalmClear
10:55 PM51.8 °F21.2 °F30 %29.99 in10.0 miSouth (190°)3.5 mphClear
11:15 PM50.0 °F23.0 °F35 %29.99 in10.0 miSSW (210°)3.5 mphClear
11:35 PM50.0 °F23.0 °F35 %29.99 in10.0 miSSW (210°)3.5 mphClear
11:55 PM53.6 °F23.0 °F30 %29.99 in10.0 miSSW (210°)6.9 mphClear
Hourly data recorded from KFVX, located miles away from Columbia, Virginia







STORIES FROM OUR PARTNERS